Torna al catalogo

CZ-4C R/B

AttivoLEO
NORAD 54250·ROCKET BODY·🇨🇳 China

Lanciato Nov 15, 2022 da Jiuquan Satellite Launch Center

Loading…

Prossimi Passaggi (prossime 24 ore)

TLE

AggiornatoSource: Space-Track

Epoca: Sep 14, 2026, 23:26 UTC

1 54250U 22154B   26257.97660927 -.00000007  00000-0  84470-4 0  9993
2 54250  63.4029 241.0803 0238094  23.9199 337.2687 13.69012611191646

Traccia CZ-4C R/B in tempo reale con AllMySat

Download on the App Store